Weather History for Dutch Harbor, AK

Change the Weather History Date:

Thursday, January 2, 2014

  Actual Average Record
Temperature  
Mean Temperature 42 °F -  
Max Temperature 44 °F 36 °F 48 °F (1988)
Min Temperature 37 °F 27 °F 14 °F (1988)
Degree Days  
Heating Degree Days 24    
Moisture  
Dew Point 32 °F    
Average Humidity 68    
Maximum Humidity 81    
Minimum Humidity 57    
Precipitation  
Precipitation 0.04 in - - ()
Sea Level Pressure  
Sea Level Pressure 29.65 in    
Wind  
Wind Speed 16 mph (SSW)    
Max Wind Speed 26 mph    
Max Gust Speed 36 mph    
Visibility 10 miles    
Events Rain    
Averages and records for this station are not official NWS values.
T = Trace of Precipitation, MM = Missing Value Source: NWS Daily Summary

Daily Weather History Graph

Daily Weather History Graph

Search for Another Location

Airport:

Trip Planner

Search our weather history database for the weather conditions in past years. The results will help you decide how hot, cold, wet, or windy it might be!

Date:

Astronomy

Jan. 02, 2014 Rise Set
Actual Time 10:24 AM AKST 5:56 PM AKST
Civil Twilight 9:41 AM AKST 6:39 PM AKST
Nautical Twilight 8:55 AM AKST 7:25 PM AKST
Astronomical Twilight 8:12 AM AKST 8:08 PM AKST
Moon 10:55 AM AKST (1/2) 8:32 PM AKST (1/2)
Length of Visible Light 8h 58m
Length of Day
7h 32m
Waxing Crescent, 3% of the Moon is Illuminated
Jan 2
Waxing Crescent
Jan 7
First Quarter
Jan 15
Full
Jan 23
Last Quarter
Jan 30
New

Hourly Weather History & Observations

Time (AKST) Temp. Windchill Dew Point Humidity Pressure Visibility Wind Dir Wind Speed Gust Speed Precip Events Conditions
12:42 AM 44.6 °F 37.8 °F 37.4 °F 76% 29.49 in 10.0 mi SSE 15.0 mph 26.5 mph 0.00 in Rain Light Rain
12:56 AM 43.0 °F 36.4 °F 37.0 °F 80% 29.51 in 10.0 mi South 12.7 mph 21.9 mph 0.00 in Rain Light Rain
1:16 AM 42.8 °F 34.8 °F 33.8 °F 70% 29.47 in 10.0 mi SSE 17.3 mph 24.2 mph 0.00 in Rain Light Rain
1:56 AM 43.0 °F 34.8 °F 32.0 °F 65% 29.49 in 10.0 mi South 18.4 mph 25.3 mph 0.00 in   Clear
2:56 AM 44.1 °F 35.7 °F 30.9 °F 60% 29.47 in 10.0 mi South 20.7 mph 35.7 mph N/A   Scattered Clouds
3:56 AM 44.1 °F 37.1 °F 30.9 °F 60% 29.48 in 10.0 mi SSE 15.0 mph 31.1 mph 0.00 in Rain Light Rain
4:56 AM 43.0 °F 34.8 °F 30.9 °F 62% 29.48 in 10.0 mi SSE 18.4 mph 26.5 mph 0.00 in Rain Light Rain
5:56 AM 43.0 °F 35.7 °F 30.0 °F 60% 29.49 in 10.0 mi South 15.0 mph 21.9 mph 0.00 in Rain Light Rain
6:56 AM 42.1 °F 37.7 °F 30.9 °F 65% 29.51 in 10.0 mi South 6.9 mph - 0.00 in Rain Light Rain
7:32 AM 42.8 °F 34.8 °F 28.4 °F 57% 29.50 in 10.0 mi SSW 17.3 mph 21.9 mph 0.00 in Rain Light Rain
7:56 AM 42.1 °F 33.3 °F 30.0 °F 62% 29.52 in 10.0 mi SW 19.6 mph 26.5 mph 0.00 in Rain Light Rain
8:56 AM 41.0 °F 32.8 °F 30.9 °F 67% 29.55 in 10.0 mi SSW 16.1 mph 24.2 mph 0.00 in Rain Light Rain
9:56 AM 41.0 °F 34.3 °F 32.0 °F 70% 29.57 in 10.0 mi SSW 11.5 mph - 0.00 in Rain Light Rain
10:36 AM 39.2 °F 29.8 °F 33.8 °F 81% 29.58 in 10.0 mi SSW 18.4 mph 25.3 mph 0.01 in Rain Rain
10:56 AM 39.9 °F 30.2 °F 33.1 °F 77% 29.60 in 10.0 mi SSW 20.7 mph 29.9 mph 0.01 in Rain Light Rain
11:56 AM 41.0 °F 31.1 °F 33.1 °F 73% 29.62 in 10.0 mi SSW 23.0 mph 29.9 mph 0.01 in Rain Light Rain
12:32 PM 41.0 °F 31.1 °F 33.8 °F 76% 29.62 in 10.0 mi SSW 23.0 mph 29.9 mph 0.00 in Rain Light Rain
12:56 PM 41.0 °F 33.1 °F 33.1 °F 73% 29.65 in 10.0 mi SSW 15.0 mph 23.0 mph 0.00 in Rain Light Rain
1:18 PM 39.2 °F 32.5 °F 33.8 °F 81% 29.65 in 10.0 mi South 10.4 mph 20.7 mph 0.00 in   Mostly Cloudy
1:56 PM 41.0 °F 30.5 °F 34.0 °F 76% 29.70 in 9.0 mi SW 26.5 mph 35.7 mph 0.01 in Rain Light Rain
2:56 PM 42.1 °F 36.6 °F 33.1 °F 70% 29.73 in 10.0 mi SW 9.2 mph - 0.01 in   Mostly Cloudy
3:56 PM 43.0 °F 34.0 °F 30.0 °F 60% 29.74 in 10.0 mi SW 21.9 mph 35.7 mph N/A   Mostly Cloudy
4:56 PM 43.0 °F 33.3 °F 30.0 °F 60% 29.77 in 10.0 mi SW 25.3 mph 35.7 mph N/A   Mostly Cloudy
5:56 PM 42.1 °F 34.5 °F 30.0 °F 62% 29.81 in 10.0 mi SW 15.0 mph 32.2 mph N/A   Mostly Cloudy
6:56 PM 41.0 °F 33.9 °F 28.9 °F 62% 29.85 in 10.0 mi SW 12.7 mph 23.0 mph 0.00 in Rain Light Rain
7:56 PM 39.9 °F 31.1 °F 28.9 °F 65% 29.87 in 10.0 mi SSW 17.3 mph 20.7 mph 0.00 in   Mostly Cloudy
8:56 PM 39.0 °F 31.4 °F 30.9 °F 73% 29.90 in 10.0 mi SSW 12.7 mph - 0.00 in   Mostly Cloudy
9:56 PM 39.0 °F 34.8 °F 30.0 °F 70% 29.92 in 10.0 mi South 5.8 mph - 0.00 in   Scattered Clouds
10:56 PM 39.0 °F 35.7 °F 30.0 °F 70% 29.94 in 10.0 mi South 4.6 mph - N/A   Mostly Cloudy
11:56 PM 37.9 °F 34.4 °F 27.0 °F 65% 29.95 in 10.0 mi South 4.6 mph - N/A   Clear